Date String (YYYY-MM-DD hh:mm:ss) UTC,Instrument flags,Ambient pressure (hPa),Sample flow (lpm),Bypass flow (lpm),Sample temperature (°C),Ambient temperature (°C),ASC tube jacket temperature (°C),LED temperature (°C),Box temperature (°C),Sample RH (%),Span deviation,Mass concentration (μg/m³),Mass concentration (μg/m³),Mass concentration (μg/m³)
DateTimeUTC,F1_M11,P_M11,Q1_M11,Q2_M11,T1_M11,T2_M11,T3_M11,T4_M11,T5_M11,U1_M11,ZSPAN_M11,X2_M11,X0_M11,X1_M11
2022-04-09 07:00:00,,0822.3,5.00,0.00,27.8,26.9,00.0,36.9,29.5,07.8,0000.0,0002.93,0007.77,0001.45
2022-04-09 07:01:00,,0822.3,5.00,0.00,27.8,26.9,00.0,36.9,29.5,07.8,0000.0,0002.98,0007.94,0001.45
2022-04-09 07:02:00,,0822.4,4.99,0.00,27.8,26.9,00.0,36.8,29.5,07.7,0000.0,0002.91,0007.60,0001.45
2022-04-09 07:03:00,,0822.3,5.01,0.00,27.8,26.9,00.0,36.8,29.5,07.8,0000.0,0002.94,0007.80,0001.45
2022-04-09 07:04:00,,0822.3,5.00,0.00,27.8,26.9,00.0,36.8,29.5,07.8,0000.0,0002.90,0008.39,0001.43
2022-04-09 07:05:00,,0822.4,4.99,0.00,27.8,26.9,00.0,36.8,29.5,07.9,0000.0,0002.86,0008.27,0001.42
2022-04-09 07:06:00,,0822.3,5.00,0.00,27.8,26.9,00.0,36.8,29.6,07.8,0000.0,0002.88,0008.23,0001.43
2022-04-09 07:07:00,,0822.3,4.99,0.00,27.8,26.9,00.0,36.8,29.6,07.8,0000.0,0002.94,0008.26,0001.44
2022-04-09 07:08:00,,0822.3,5.01,0.00,27.8,26.9,00.0,36.8,29.6,07.7,0000.0,0002.88,0008.15,0001.43
2022-04-09 07:09:00,,0822.3,4.99,0.00,27.8,27.0,00.0,36.8,29.6,07.8,0000.0,0002.85,0008.12,0001.42
2022-04-09 07:10:00,,0822.3,4.98,0.00,27.8,26.9,00.0,36.8,29.6,07.6,0000.0,0002.73,0007.72,0001.40
2022-04-09 07:11:00,,0822.3,5.01,0.00,27.8,26.9,00.0,36.8,29.6,07.6,0000.0,0002.59,0007.35,0001.40
2022-04-09 07:12:00,,0822.2,5.01,0.00,27.8,27.0,00.0,36.8,29.6,07.7,0000.0,0002.55,0007.10,0001.40
2022-04-09 07:13:00,,0822.3,5.00,0.00,27.8,27.0,00.0,36.8,29.6,07.7,0000.0,0002.63,0007.25,0001.42
2022-04-09 07:14:00,,0822.3,4.99,0.00,27.9,27.0,00.0,36.8,29.6,07.7,0000.0,0002.63,0006.84,0001.43
2022-04-09 07:15:00,,0822.2,5.01,0.00,27.9,27.0,00.0,36.8,29.6,07.6,0000.0,0002.69,0005.58,0001.45
2022-04-09 07:16:00,,0822.1,5.00,0.00,27.8,27.0,00.0,36.8,29.6,07.5,0000.0,0002.68,0005.52,0001.45
2022-04-09 07:17:00,,0822.1,4.99,0.00,27.8,27.0,00.0,36.8,29.6,07.5,0000.0,0002.64,0005.41,0001.45
2022-04-09 07:18:00,,0822.1,4.99,0.00,27.8,26.9,00.0,36.8,29.6,07.6,0000.0,0002.66,0006.53,0001.44
2022-04-09 07:19:00,,0822.1,5.01,0.00,27.8,26.9,00.0,36.8,29.6,07.6,0000.0,0002.72,0007.31,0001.44
2022-04-09 07:20:00,,0822.1,5.01,0.00,27.8,26.9,00.0,36.8,29.6,07.5,0000.0,0002.74,0007.47,0001.43
2022-04-09 07:21:00,,0822.1,5.00,0.00,27.8,26.9,00.0,36.8,29.5,07.6,0000.0,0002.78,0008.11,0001.44
2022-04-09 07:22:00,,0822.0,5.00,0.00,27.8,26.9,00.0,36.8,29.5,07.7,0000.0,0002.73,0008.04,0001.44
2022-04-09 07:23:00,,0821.9,5.00,0.00,27.8,26.9,00.0,36.8,29.5,07.8,0000.0,0002.72,0008.04,0001.44
2022-04-09 07:24:00,,0822.0,5.00,0.00,27.8,26.9,00.0,36.8,29.5,07.7,0000.0,0002.73,0008.08,0001.44
2022-04-09 07:25:00,,0821.8,4.99,0.00,27.8,26.9,00.0,36.8,29.5,07.7,0000.0,0002.73,0008.06,0001.44
2022-04-09 07:26:00,,0822.0,5.00,0.00,27.8,26.9,00.0,36.8,29.5,07.7,0000.0,0002.71,0008.03,0001.42
2022-04-09 07:27:00,,0821.8,5.00,0.00,27.8,26.9,00.0,36.8,29.5,07.7,0000.0,0002.73,0008.06,0001.42
2022-04-09 07:28:00,,0821.8,4.99,0.00,27.8,27.0,00.0,36.8,29.5,07.8,0000.0,0002.80,0008.13,0001.43
2022-04-09 07:29:00,,0822.0,5.02,0.00,27.8,27.0,00.0,36.8,29.5,07.8,0000.0,0002.81,0007.56,0001.45
2022-04-09 07:30:00,,0821.9,5.01,0.00,27.8,27.0,00.0,36.8,29.6,07.8,0000.0,0002.81,0007.48,0001.47
2022-04-09 07:31:00,,0821.8,5.00,0.00,27.8,27.0,00.0,36.8,29.5,07.8,0000.0,0002.92,0007.59,0001.49
2022-04-09 07:32:00,,0821.8,4.99,0.00,27.8,27.0,00.0,36.8,29.6,07.8,0000.0,0002.94,0006.77,0001.49
2022-04-09 07:33:00,,0821.8,4.99,0.00,27.8,27.0,00.0,36.8,29.6,07.8,0000.0,0003.00,0007.05,0001.51
2022-04-09 07:34:00,,0821.9,4.99,0.00,27.8,26.9,00.0,36.8,29.6,07.9,0000.0,0002.98,0007.26,0001.51
2022-04-09 07:35:00,,0821.9,5.01,0.00,27.8,26.9,00.0,36.8,29.5,07.9,0000.0,0002.99,0007.45,0001.51
2022-04-09 07:36:00,,0821.8,4.99,0.00,27.8,26.9,00.0,36.8,29.6,07.9,0000.0,0003.01,0007.58,0001.51
2022-04-09 07:37:00,,0821.8,4.99,0.00,27.8,26.9,00.0,36.8,29.6,07.8,0000.0,0003.05,0007.71,0001.52
2022-04-09 07:38:00,,0821.8,5.00,0.00,27.8,26.9,00.0,36.8,29.5,07.8,0000.0,0003.02,0007.67,0001.52
2022-04-09 07:39:00,,0821.8,5.01,0.00,27.8,26.9,00.0,36.8,29.5,07.8,0000.0,0002.98,0007.58,0001.52
2022-04-09 07:40:00,,0821.7,5.00,0.00,27.8,26.9,00.0,36.8,29.5,07.9,0000.0,0003.03,0007.67,0001.52
2022-04-09 07:41:00,,0821.8,4.99,0.00,27.8,26.9,00.0,36.8,29.5,07.9,0000.0,0003.12,0007.58,0001.52
2022-04-09 07:42:00,,0821.7,5.00,0.00,27.8,26.9,00.0,36.8,29.6,07.9,0000.0,0003.10,0007.46,0001.53
2022-04-09 07:43:00,,0821.8,5.01,0.00,27.8,26.9,00.0,36.8,29.5,07.9,0000.0,0003.12,0007.63,0001.52
2022-04-09 07:44:00,,0821.7,5.01,0.00,27.8,26.9,00.0,36.8,29.6,07.9,0000.0,0003.07,0007.55,0001.50
2022-04-09 07:45:00,,0821.6,4.99,0.00,27.8,26.9,00.0,36.8,29.6,07.9,0000.0,0003.12,0007.49,0001.50
2022-04-09 07:46:00,,0821.7,4.99,0.00,27.8,26.9,00.0,36.8,29.6,07.8,0000.0,0003.10,0008.04,0001.52
2022-04-09 07:47:00,,0821.7,5.01,0.00,27.8,26.9,00.0,36.8,29.6,07.8,0000.0,0003.03,0007.85,0001.52
2022-04-09 07:48:00,,0821.6,5.00,0.00,27.8,26.9,00.0,36.8,29.6,07.8,0000.0,0003.02,0007.79,0001.52
2022-04-09 07:49:00,,0821.6,4.99,0.00,27.8,26.9,00.0,36.8,29.5,07.8,0000.0,0003.04,0007.79,0001.51
2022-04-09 07:50:00,,0821.6,5.00,0.00,27.8,26.9,00.0,36.8,29.5,07.8,0000.0,0003.02,0007.77,0001.50
2022-04-09 07:51:00,,0821.5,5.03,0.00,27.8,26.9,00.0,36.8,29.5,07.8,0000.0,0002.96,0007.65,0001.49
2022-04-09 07:52:00,,0821.5,5.00,0.00,27.8,26.9,00.0,36.8,29.5,07.8,0000.0,0002.91,0007.58,0001.47
2022-04-09 07:53:00,,0821.5,4.99,0.00,27.7,26.8,00.0,36.8,29.5,07.9,0000.0,0002.83,0007.32,0001.45
2022-04-09 07:54:00,,0821.5,5.00,0.00,27.7,26.8,00.0,36.8,29.5,07.9,0000.0,0002.83,0007.01,0001.45
2022-04-09 07:55:00,,0821.5,4.99,0.00,27.7,26.7,00.0,36.8,29.4,07.8,0000.0,0002.99,0007.33,0001.47
2022-04-09 07:56:00,,0821.4,5.03,0.00,27.7,26.7,00.0,36.8,29.4,07.9,0000.0,0002.96,0007.29,0001.46
2022-04-09 07:57:00,,0821.4,5.00,0.00,27.6,26.6,00.0,36.7,29.3,07.9,0000.0,0002.95,0005.99,0001.44
2022-04-09 07:58:00,,0821.4,4.99,0.00,27.6,26.6,00.0,36.7,29.3,07.9,0000.0,0002.97,0006.08,0001.44
2022-04-09 07:59:00,,0821.4,4.99,0.00,27.6,26.6,00.0,36.7,29.3,07.9,0000.0,0002.95,0006.14,0001.44
